Chester, CT

11:41 AM EST on December 09, 2019 (GMT -0500)
Chester

Weather History for KSNC - November, 2019

Change the Weather History Date:

Sunday, November 17, 2019

  Actual Average (KHVN) Record (KHVN)
Temperature  
Mean Temperature 31 °F -  
Max Temperature 39 °F 49 °F 65 °F (1987)
Min Temperature 23 °F 35 °F 26 °F (1997)
Degree Days  
Heating Degree Days 34    
Moisture  
Dew Point 18 °F    
Average Humidity 57    
Maximum Humidity 75    
Minimum Humidity 31    
Precipitation  
Precipitation 0.00 in - - ()
Sea Level Pressure  
Sea Level Pressure 30.27 in    
Wind  
Wind Speed 8 mph ()    
Max Wind Speed 13 mph    
Max Gust Speed 20 mph    
Visibility 10.0 miles    
Events      
Averages and records for this station are not official NWS values.
T = Trace of Precipitation, MM = Missing Value Source: Averaged Metar Reports

Daily Weather History Graph

Daily Weather History Graph

Search for Another Location

Airport or City:

Astronomy

Nov. 17, 2019 Rise Set
Actual Time 6:40 AM EST 4:28 PM EST
Civil Twilight 6:10 AM EST 4:58 PM EST
Nautical Twilight 5:37 AM EST 5:32 PM EST
Astronomical Twilight 5:04 AM EST 6:05 PM EST
Moon 9:01 PM EST (11/17) 11:24 AM EST (11/17)
Length of Visible Light 10h 48m
Length of Day
9h 48m
Waning Gibbous, 73% of the Moon is Illuminated
Nov 17
Waning Gibbous
Nov 19
Last Quarter
Nov 26
New
Dec 4
First Quarter
Dec 12
Full

Hourly Weather History & Observations

Time (EST) Temp. Windchill Dew Point Humidity Pressure Visibility Wind Dir Wind Speed Gust Speed Precip Events Conditions
12:15 AM 24.8 °F 16.9 °F -0.4 °F 34% 30.45 in 10.0 mi North 6.9 mph - N/A   Clear
12:35 AM 24.8 °F 16.1 °F -2.2 °F 31% 30.44 in 10.0 mi North 8.1 mph - N/A   Clear
12:55 AM 24.8 °F 16.1 °F -0.4 °F 34% 30.42 in 10.0 mi NNE 8.1 mph - N/A   Clear
1:35 AM 24.8 °F 16.9 °F 1.4 °F 36% 30.42 in 10.0 mi NNE 6.9 mph - N/A   Clear
1:55 AM 24.8 °F 16.1 °F 1.4 °F 36% 30.42 in 10.0 mi North 8.1 mph - N/A   Clear
2:15 AM 24.8 °F 14.6 °F 1.4 °F 36% 30.41 in 10.0 mi North 10.4 mph - N/A   Scattered Clouds
2:35 AM 24.8 °F 16.1 °F 1.4 °F 36% 30.41 in 10.0 mi NNE 8.1 mph - N/A   Partly Cloudy
2:55 AM 24.8 °F 16.1 °F 3.2 °F 40% 30.40 in 10.0 mi North 8.1 mph 15.0 mph N/A   Clear
3:15 AM 24.8 °F 16.1 °F 3.2 °F 40% 30.40 in 10.0 mi North 8.1 mph - N/A   Scattered Clouds
3:35 AM 23.0 °F 12.4 °F 3.2 °F 43% 30.40 in 10.0 mi North 10.4 mph - N/A   Partly Cloudy
3:55 AM 23.0 °F 13.1 °F 3.2 °F 43% 30.40 in 10.0 mi North 9.2 mph - N/A   Clear
4:15 AM 23.0 °F 13.1 °F 5.0 °F 46% 30.39 in 10.0 mi North 9.2 mph - N/A   Clear
4:35 AM 23.0 °F 13.1 °F 5.0 °F 46% 30.39 in 10.0 mi NNE 9.2 mph - N/A   Clear
4:55 AM 23.0 °F 13.1 °F 6.8 °F 50% 30.39 in 10.0 mi North 9.2 mph - N/A   Clear
5:15 AM 23.0 °F 13.1 °F 6.8 °F 50% 30.39 in 10.0 mi North 9.2 mph - N/A   Clear
5:55 AM 23.0 °F 13.1 °F 6.8 °F 50% 30.38 in 10.0 mi North 9.2 mph - N/A   Clear
6:15 AM 23.0 °F 13.9 °F 8.6 °F 54% 30.38 in 10.0 mi North 8.1 mph - N/A   Clear
6:35 AM 23.0 °F 13.9 °F 8.6 °F 54% 30.39 in 10.0 mi North 8.1 mph - N/A   Partly Cloudy
6:55 AM 23.0 °F 13.9 °F 8.6 °F 54% 30.40 in 10.0 mi North 8.1 mph - N/A   Unknown
7:15 AM 24.8 °F 15.3 °F 8.6 °F 50% 30.40 in 10.0 mi North 9.2 mph - N/A   Unknown
7:35 AM 24.8 °F 15.3 °F 10.4 °F 54% 30.40 in 10.0 mi North 9.2 mph - N/A   Overcast
7:55 AM 24.8 °F 15.3 °F 10.4 °F 54% 30.40 in 10.0 mi North 9.2 mph - N/A   Overcast
8:15 AM 24.8 °F 14.0 °F 10.4 °F 54% 30.40 in 10.0 mi North 11.5 mph - N/A   Overcast
8:35 AM 26.6 °F 16.2 °F 12.2 °F 55% 30.40 in 10.0 mi North 11.5 mph 17.3 mph N/A   Overcast
8:55 AM 26.6 °F 16.8 °F 12.2 °F 55% 30.39 in 10.0 mi North 10.4 mph - N/A   Overcast
9:15 AM 28.4 °F 19.1 °F 12.2 °F 51% 30.40 in 10.0 mi North 10.4 mph - N/A   Overcast
9:35 AM 28.4 °F 20.4 °F 14.0 °F 55% 30.38 in 10.0 mi North 8.1 mph 15.0 mph N/A   Unknown
9:55 AM 30.2 °F 21.9 °F 14.0 °F 51% 30.38 in 10.0 mi NNE 9.2 mph - N/A   Unknown
10:15 AM 30.2 °F 20.8 °F 15.8 °F 55% 30.37 in 10.0 mi North 11.5 mph - N/A   Mostly Cloudy
10:35 AM 32.0 °F 23.0 °F 15.8 °F 51% 30.36 in 10.0 mi North 11.5 mph - N/A   Mostly Cloudy
10:55 AM 32.0 °F 25.6 °F 15.8 °F 51% 30.35 in 10.0 mi North 6.9 mph 15.0 mph N/A   Overcast
11:15 AM 33.8 °F 26.4 °F 17.6 °F 52% 30.34 in 10.0 mi North 9.2 mph 15.0 mph N/A   Overcast
11:35 AM 35.6 °F 27.5 °F 19.4 °F 52% 30.32 in 10.0 mi North 11.5 mph - N/A   Unknown
11:55 AM 35.6 °F 28.6 °F 19.4 °F 52% 30.31 in 10.0 mi NNE 9.2 mph - N/A   Overcast
12:15 PM 37.4 °F 30.8 °F 21.2 °F 52% 30.30 in 10.0 mi NNE 9.2 mph - N/A   Overcast
12:35 PM 37.4 °F 30.8 °F 21.2 °F 52% 30.28 in 10.0 mi North 9.2 mph - N/A   Overcast
12:55 PM 39.2 °F 33.6 °F 23.0 °F 52% 30.28 in 10.0 mi NE 8.1 mph - N/A   Overcast
1:15 PM 39.2 °F 33.6 °F 23.0 °F 52% 30.27 in 10.0 mi NE 8.1 mph - N/A   Overcast
1:35 PM 39.2 °F 32.5 °F 24.8 °F 56% 30.26 in 10.0 mi NNE 10.4 mph - N/A   Overcast
1:55 PM 39.2 °F 32.5 °F 24.8 °F 56% 30.25 in 10.0 mi NNE 10.4 mph - N/A   Mostly Cloudy
2:15 PM 39.2 °F 31.6 °F 24.8 °F 56% 30.24 in 10.0 mi NE 12.7 mph - N/A   Overcast
2:35 PM 39.2 °F 32.0 °F 24.8 °F 56% 30.24 in 10.0 mi NNE 11.5 mph - N/A   Overcast
2:55 PM 39.2 °F 33.6 °F 24.8 °F 56% 30.23 in 10.0 mi NNE 8.1 mph 13.8 mph N/A   Overcast
3:15 PM 37.4 °F 30.3 °F 26.6 °F 65% 30.23 in 10.0 mi NNE 10.4 mph - N/A   Mostly Cloudy
3:35 PM 37.4 °F 30.3 °F 26.6 °F 65% 30.21 in 10.0 mi NNE 10.4 mph - N/A   Mostly Cloudy
3:55 PM 37.4 °F 31.4 °F 26.6 °F 65% 30.21 in 10.0 mi NE 8.1 mph 17.3 mph N/A   Scattered Clouds
4:15 PM 35.6 °F 29.9 °F 24.8 °F 65% 30.20 in 10.0 mi NNE 6.9 mph - N/A   Scattered Clouds
4:35 PM 35.6 °F 29.2 °F 24.8 °F 65% 30.19 in 10.0 mi NNE 8.1 mph 15.0 mph N/A   Overcast
4:55 PM 35.6 °F 29.2 °F 26.6 °F 70% 30.19 in 10.0 mi NNE 8.1 mph 17.3 mph N/A   Overcast
5:15 PM 35.6 °F 28.0 °F 26.6 °F 70% 30.18 in 10.0 mi NE 10.4 mph 17.3 mph N/A   Overcast
5:35 PM 35.6 °F 28.0 °F 28.4 °F 75% 30.18 in 10.0 mi NNE 10.4 mph 18.4 mph N/A   Overcast
5:55 PM 35.6 °F 28.6 °F 28.4 °F 75% 30.18 in 10.0 mi NNE 9.2 mph 15.0 mph N/A   Overcast
6:15 PM 35.6 °F 28.6 °F 28.4 °F 75% 30.17 in 10.0 mi NNE 9.2 mph 19.6 mph N/A   Overcast
6:35 PM 35.6 °F 28.6 °F 28.4 °F 75% 30.17 in 10.0 mi NNE 9.2 mph 18.4 mph N/A   Overcast
6:55 PM 35.6 °F 28.0 °F 28.4 °F 75% 30.16 in 10.0 mi NNE 10.4 mph 16.1 mph N/A   Overcast
7:15 PM 37.4 °F 31.4 °F 28.4 °F 70% 30.15 in 10.0 mi NE 8.1 mph 18.4 mph N/A   Mostly Cloudy
7:35 PM 37.4 °F 30.8 °F 28.4 °F 70% 30.15 in 10.0 mi NNE 9.2 mph - N/A   Mostly Cloudy
7:55 PM 37.4 °F 31.4 °F 28.4 °F 70% 30.14 in 10.0 mi NNE 8.1 mph - N/A   Overcast
8:15 PM 37.4 °F 31.4 °F 28.4 °F 70% 30.13 in 10.0 mi NNE 8.1 mph 15.0 mph N/A   Overcast
8:35 PM 37.4 °F 31.4 °F 28.4 °F 70% 30.12 in 10.0 mi NNE 8.1 mph 15.0 mph N/A   Overcast
8:55 PM 37.4 °F 31.4 °F 28.4 °F 70% 30.10 in 10.0 mi NNE 8.1 mph 13.8 mph N/A   Overcast
9:15 PM 37.4 °F 31.4 °F 30.2 °F 75% 30.09 in 10.0 mi NNE 8.1 mph 16.1 mph N/A   Overcast
9:35 PM 37.4 °F 30.3 °F 30.2 °F 75% 30.08 in 10.0 mi NNE 10.4 mph 16.1 mph N/A   Overcast
9:55 PM 37.4 °F 30.8 °F 30.2 °F 75% 30.08 in 10.0 mi NE 9.2 mph 15.0 mph N/A   Overcast
10:15 PM 37.4 °F 30.8 °F 30.2 °F 75% 30.07 in 10.0 mi NE 9.2 mph - N/A   Overcast
10:35 PM 37.4 °F 31.4 °F 30.2 °F 75% 30.06 in 10.0 mi NNE 8.1 mph 16.1 mph N/A   Overcast
10:55 PM 37.4 °F 29.8 °F 30.2 °F 75% 30.05 in 10.0 mi NNE 11.5 mph - N/A   Overcast
11:15 PM 37.4 °F 31.4 °F 30.2 °F 75% 30.04 in 10.0 mi NNE 8.1 mph 17.3 mph N/A   Overcast
11:35 PM 39.2 °F 32.5 °F 30.2 °F 70% 30.03 in 10.0 mi NNE 10.4 mph - N/A   Overcast
11:55 PM 39.2 °F 32.5 °F 30.2 °F 70% 30.03 in 10.0 mi NNE 10.4 mph - N/A   Overcast